Regional Weather Roundup
Issued by NWS Albany, NY

Home | Current Version | Previous Version | Text Only | Print | Product List | Glossary On
Versions: 1 2 3 4 5 6 7 8 9 10 11 12 13 14 15 16 17 18 19 20 21 22 23 24 25 26 27 28 29 30 31 32 33 34 35 36 37 38 39 40 41 42 43 44 45 46 47 48 49 50
000
ASUS41 KALY 180410
RWRALY

NEW YORK STATE HOURLY WEATHER ROUNDUP
NATIONAL WEATHER SERVICE ALBANY NY
1100 PM EST SUN DEC 17 2017

NOTE: "FAIR" INDICATES FEW OR NO CLOUDS BELOW 12,000 FEET WITH NO
SIGNIFICANT WEATHER AND/OR NO OBSTRUCTIONS TO VISIBILITY.

NYZ032-033-038>043-046>054-057>066-NYZ062>081-082-084-180500-
EAST


CITY           SKY/WX    TMP DP  RH WIND       PRES   REMARKS
ALBANY         CLOUDY    19   9  65 NE5       30.24F WCI  12
GLENS FALLS    CLOUDY     7   4  87 CALM      30.24F
POUGHKEEPSIE   CLOUDY    27  16  63 N3        30.23F
NEWBURGH       CLOUDY    27  19  74 CALM      30.23S
MONTGOMERY     CLOUDY    26  17  68 N7        30.21S WCI  18
WHITE PLAINS   CLOUDY    30  18  60 E5        30.20F WCI  25
ISLIP          CLOUDY    32  24  72 E3        30.22F
NEW YORK CITY  CLOUDY    35  24  64 E8        30.22F WCI  29
CENTRAL PARK   CLOUDY    36  25  64 CALM      30.23F
$$

NYZ005>009-017-018-044>046-055-056-180500-
CENTRAL


CITY           SKY/WX    TMP DP  RH WIND       PRES   REMARKS
FULTON         CLOUDY    21  14  74 E5        30.12F WCI  15
SYRACUSE       FLURRIES  20  16  84 E8        30.12F WCI  10
ROME           MOCLDY    20  13  74 E8        30.17F WCI  10
ELMIRA         CLOUDY    26  20  77 CALM      30.10F
BINGHAMTON     CLOUDY    24  19  81 S6        30.08F WCI  17
MONTICELLO     CLOUDY    24  19  81 E6        30.15F WCI  17
$$

NYZ026>034-041>043-087-180500-
NORTH


CITY           SKY/WX    TMP DP  RH WIND       PRES   REMARKS
WATERTOWN      PTCLDY     7   2  80 NE6       30.16F WCI  -3
FORT DRUM      NOT AVBL
OGDENSBURG     FAIR       8   4  86 CALM      30.19F
MASSENA        CLOUDY     3   1  91 CALM      30.23F
SARANAC LAKE   CLOUDY     5   3  91 NE5       30.06F WCI  -4
PLATTSBURGH    CLOUDY    11   5  77 CALM      30.24F
$$

NYZ001>004-010>016-019>021-085-180500-
WEST


CITY           SKY/WX    TMP DP  RH WIND       PRES   REMARKS
NIAGARA FALLS  CLOUDY    25  18  74 E3        30.06S
BUFFALO        CLOUDY    25  20  81 N3        30.06S
DUNKIRK        CLOUDY    36  30  79 SW13      30.07R WCI  27
JAMESTOWN      CLOUDY    31  29  92 S9        30.04S WCI  23
WELLSVILLE     CLOUDY    36  27  69 S8        30.03F WCI  30
ROCHESTER      CLOUDY    25  21  85 E3        30.10S
PENN YAN       CLOUDY    25  19  78 S3        30.07F
$$

             KEY
       WCI = WIND CHILL INDEX
       VSB = VISIBILITY
       HX  = HEAT INDEX
$$



USA.gov is the U.S. government's official web portal to all federal, state and local government web resources and services.